EN

Hourly Weather Lugovoe

Today, 18 May, Tuesday

Time Temperature Precipitation Wind Pressure Humidity
00:00 +14°C° 0.6 mm 1 mps 738 mmHg 98%
01:00 +14°C° 0.6 mm 1 mps 738 mmHg 99%
02:00 +14°C° 0.6 mm 1 mps 738 mmHg 99%
03:00 +14°C° 0.2 mm 1 mps 738 mmHg 99%
04:00 +15°C° 0.2 mm 1 mps 738 mmHg 99%
05:00 +15°C° 0.2 mm 1 mps 737 mmHg 98%
06:00 +15°C° 0.2 mm 1 mps 737 mmHg 98%
07:00 +16°C° 0.2 mm 1 mps 738 mmHg 97%
08:00 +18°C° 0.2 mm 1 mps 738 mmHg 96%
09:00 +18°C° 0.5 mm 1 mps 738 mmHg 96%
10:00 +18°C° 0.5 mm 2 mps 738 mmHg 95%
11:00 +18°C° 0.5 mm 2 mps 738 mmHg 95%
12:00 +19°C° 0.4 mm 3 mps 738 mmHg 91%
13:00 +20°C° 0.4 mm 3 mps 738 mmHg 87%
14:00 +21°C° 0.4 mm 4 mps 738 mmHg 83%
15:00 +20°C° 0.7 mm 4 mps 737 mmHg 85%
16:00 +19°C° 0.7 mm 3 mps 737 mmHg 87%
17:00 +18°C° 0.7 mm 3 mps 737 mmHg 89%
18:00 +17°C° 0.3 mm 3 mps 737 mmHg 90%
19:00 +17°C° 0.3 mm 3 mps 737 mmHg 91%
20:00 +16°C° 0.3 mm 3 mps 737 mmHg 92%
21:00 +16°C° 0.1 mm 3 mps 737 mmHg 94%
22:00 +16°C° 0.1 mm 3 mps 736 mmHg 95%
23:00 +16°C° 0.1 mm 3 mps 736 mmHg 96%

Tomorrow, 19 May, Wednesday

Time Temperature Precipitation Wind Pressure Humidity
00:00 +15°C° 0.1 mm 2 mps 736 mmHg 96%
01:00 +15°C° 0.1 mm 2 mps 736 mmHg 97%
02:00 +15°C° 0.1 mm 2 mps 736 mmHg 97%
03:00 +15°C° 0.3 mm 2 mps 736 mmHg 97%
04:00 +14°C° 0.3 mm 3 mps 736 mmHg 98%
05:00 +13°C° 0.3 mm 3 mps 736 mmHg 98%
06:00 +14°C° 0 mm 3 mps 737 mmHg 95%
07:00 +14°C° 0 mm 3 mps 737 mmHg 93%
08:00 +15°C° 0 mm 4 mps 737 mmHg 91%
09:00 +15°C° 0.1 mm 4 mps 738 mmHg 89%
10:00 +17°C° 0.1 mm 3 mps 738 mmHg 87%
11:00 +18°C° 0.1 mm 3 mps 738 mmHg 85%
12:00 +18°C° 0.4 mm 3 mps 738 mmHg 83%
13:00 +18°C° 0.4 mm 3 mps 738 mmHg 82%
14:00 +19°C° 0.4 mm 3 mps 739 mmHg 80%
15:00 +18°C° 0.3 mm 3 mps 739 mmHg 84%
16:00 +17°C° 0.3 mm 3 mps 739 mmHg 88%
17:00 +14°C° 0.3 mm 3 mps 740 mmHg 92%
18:00 +13°C° 0 mm 3 mps 740 mmHg 92%
19:00 +13°C° 0 mm 2 mps 740 mmHg 93%
20:00 +12°C° 0 mm 2 mps 741 mmHg 94%
21:00 +12°C° 0 mm 2 mps 741 mmHg 93%
22:00 +10°C° 0 mm 2 mps 741 mmHg 93%
23:00 +10°C° 0 mm 2 mps 741 mmHg 93%

Day after tomorrow, 20 May, Thursday

Time Temperature Precipitation Wind Pressure Humidity
00:00 +10°C° 0 mm 2 mps 742 mmHg 94%
01:00 +10°C° 0 mm 2 mps 742 mmHg 94%
02:00 +10°C° 0 mm 2 mps 742 mmHg 95%
03:00 +10°C° 0.1 mm 2 mps 742 mmHg 95%
04:00 +9°C° 0.1 mm 3 mps 742 mmHg 96%
05:00 +9°C° 0.1 mm 3 mps 742 mmHg 96%
06:00 +9°C° 0.9 mm 3 mps 742 mmHg 96%
07:00 +9°C° 0.9 mm 3 mps 742 mmHg 96%
08:00 +8°C° 0.9 mm 4 mps 742 mmHg 96%
09:00 +8°C° 0.7 mm 4 mps 742 mmHg 96%
10:00 +8°C° 0.7 mm 4 mps 742 mmHg 96%
11:00 +8°C° 0.7 mm 5 mps 742 mmHg 95%
12:00 +8°C° 0.1 mm 5 mps 741 mmHg 94%
13:00 +8°C° 0.1 mm 5 mps 741 mmHg 93%
14:00 +8°C° 0.1 mm 5 mps 741 mmHg 92%
15:00 +8°C° 0.3 mm 6 mps 740 mmHg 92%
16:00 +8°C° 0.3 mm 6 mps 740 mmHg 93%
17:00 +8°C° 0.3 mm 6 mps 740 mmHg 93%
18:00 +8°C° 1.1 mm 6 mps 739 mmHg 94%
19:00 +8°C° 1.1 mm 6 mps 739 mmHg 94%
20:00 +8°C° 1.1 mm 6 mps 738 mmHg 95%
21:00 +8°C° 5.5 mm 6 mps 738 mmHg 96%
22:00 +8°C° 5.5 mm 6 mps 738 mmHg 96%
23:00 +7°C° 5.5 mm 5 mps 737 mmHg 97%

21 May, Friday

Time Temperature Precipitation Wind Pressure Humidity
00:00 +7°C° 1.9 mm 5 mps 737 mmHg 97%
01:00 +7°C° 1.9 mm 6 mps 737 mmHg 97%
02:00 +7°C° 1.9 mm 6 mps 737 mmHg 96%
03:00 +7°C° 1 mm 6 mps 737 mmHg 96%
04:00 +7°C° 1 mm 6 mps 737 mmHg 96%
05:00 +7°C° 1 mm 6 mps 737 mmHg 96%
06:00 +7°C° 0.9 mm 6 mps 737 mmHg 96%
07:00 +7°C° 0.9 mm 6 mps 737 mmHg 96%
08:00 +7°C° 0.9 mm 5 mps 738 mmHg 97%
09:00 +7°C° 0.7 mm 6 mps 738 mmHg 96%
10:00 +7°C° 0.7 mm 6 mps 738 mmHg 96%
11:00 +7°C° 0.7 mm 6 mps 739 mmHg 96%
12:00 +7°C° 0.4 mm 5 mps 739 mmHg 94%
13:00 +7°C° 0.4 mm 5 mps 740 mmHg 93%
14:00 +8°C° 0.4 mm 5 mps 741 mmHg 92%
15:00 +10°C° 0.1 mm 4 mps 741 mmHg 87%
16:00 +10°C° 0.1 mm 4 mps 741 mmHg 83%
17:00 +11°C° 0.1 mm 4 mps 742 mmHg 79%
18:00 +11°C° 0 mm 3 mps 742 mmHg 78%
19:00 +10°C° 0 mm 3 mps 742 mmHg 78%
20:00 +9°C° 0 mm 3 mps 743 mmHg 78%
21:00 +9°C° 0 mm 3 mps 743 mmHg 81%
22:00 +8°C° 0 mm 3 mps 743 mmHg 84%
23:00 +8°C° 0 mm 3 mps 744 mmHg 88%

22 May, Saturday

Time Temperature Precipitation Wind Pressure Humidity
00:00 +8°C° 0 mm 3 mps 744 mmHg 88%
01:00 +8°C° 0 mm 3 mps 744 mmHg 88%
02:00 +8°C° 0 mm 3 mps 744 mmHg 88%
03:00 +7°C° 0 mm 3 mps 745 mmHg 89%
04:00 +5°C° 0 mm 3 mps 745 mmHg 90%
05:00 +5°C° 0 mm 3 mps 745 mmHg 91%
06:00 +7°C° 0 mm 3 mps 745 mmHg 80%
07:00 +8°C° 0 mm 4 mps 745 mmHg 69%
08:00 +10°C° 0 mm 4 mps 745 mmHg 58%
09:00 +11°C° 0 mm 4 mps 745 mmHg 54%
10:00 +12°C° 0 mm 4 mps 746 mmHg 50%
11:00 +14°C° 0 mm 4 mps 746 mmHg 46%
12:00 +14°C° 0 mm 4 mps 746 mmHg 50%
13:00 +13°C° 0 mm 3 mps 746 mmHg 53%
14:00 +13°C° 0 mm 3 mps 746 mmHg 57%
15:00 +14°C° 0 mm 3 mps 746 mmHg 57%
16:00 +14°C° 0 mm 3 mps 746 mmHg 57%
17:00 +14°C° 0 mm 3 mps 746 mmHg 57%
18:00 +14°C° 0 mm 2 mps 746 mmHg 64%
19:00 +12°C° 0 mm 2 mps 746 mmHg 72%
20:00 +10°C° 0 mm 2 mps 746 mmHg 79%
21:00 +9°C° 0 mm 2 mps 747 mmHg 81%
22:00 +9°C° 0 mm 2 mps 747 mmHg 83%
23:00 +8°C° 0 mm 2 mps 747 mmHg 85%

23 May, Sunday

Time Temperature Precipitation Wind Pressure Humidity
00:00 +8°C° 0 mm 2 mps 747 mmHg 88%
01:00 +8°C° 0 mm 2 mps 748 mmHg 91%
02:00 +7°C° 0 mm 2 mps 748 mmHg 94%
03:00 +8°C° 0 mm 2 mps 748 mmHg 92%
04:00 +8°C° 0 mm 2 mps 748 mmHg 90%
05:00 +9°C° 0 mm 3 mps 748 mmHg 89%
06:00 +10°C° 0 mm 3 mps 748 mmHg 81%
07:00 +12°C° 0 mm 3 mps 748 mmHg 74%
08:00 +14°C° 0 mm 4 mps 748 mmHg 67%
09:00 +15°C° 0 mm 4 mps 748 mmHg 62%
10:00 +17°C° 0 mm 4 mps 748 mmHg 58%
11:00 +18°C° 0 mm 4 mps 748 mmHg 54%
12:00 +17°C° 0 mm 5 mps 748 mmHg 51%
13:00 +19°C° 0 mm 5 mps 747 mmHg 49%
14:00 +19°C° 0 mm 5 mps 747 mmHg 47%
15:00 +19°C° 0 mm 4 mps 747 mmHg 51%
16:00 +19°C° 0 mm 4 mps 747 mmHg 54%
17:00 +18°C° 0 mm 4 mps 747 mmHg 58%
18:00 +17°C° 0.1 mm 3 mps 747 mmHg 66%
19:00 +14°C° 0.1 mm 3 mps 747 mmHg 74%
20:00 +14°C° 0.1 mm 2 mps 747 mmHg 82%
21:00 +13°C° 0 mm 2 mps 747 mmHg 83%
22:00 +12°C° 0 mm 3 mps 747 mmHg 83%
23:00 +12°C° 0 mm 3 mps 747 mmHg 84%
Show more